星链-30433 (STARLINK-30433 )

导读

STARLINK-30433是美国太空探索技术公司(SpaceX)星链(Starlink)卫星互联网项目的一员,于2023年9月16日发射升空。它运行在近地轨道,属于星链星座规模化组网的组成部分,旨在为全球尤其是偏远地区提供低延迟、高速率的宽带互联网接入服务,进一步完善星链星座的覆盖密度与服务能力,是SpaceX推进全球卫星互联网部署的一环。

基本信息
目录编号:
57878
目录名称:
STARLINK-30433
国际标识:
2023-144Q
轨道中心:
EARTH
卫星名称:
星链-30433
卫星全名:
星链-30433 (STARLINK-30433 )
卫星状态:
在轨 (已飞行1091 天)
发射日期:
2023-09-16 UTC
国别 :
美国 (US)
星等 :
--
该卫星已列入 空间交会检测服务 Space Conjunction Data Service (SCDS) ,当前飞行风险评估等级: 高风险
轨道信息
数据来源 国际轨道数据 AOE轨道数据
星历时间 2026-09-11T12:54:54+0800
11小时前
查看轨道信息
2026-09-06T08:00:00+0800
5天前
查看轨道信息
半长轴 6861.194km 6861.18km
偏心率 0.0001201 0.0001576
轨道倾角 43.002° 43.002°
近地点辐角 272.892° 238.673°
升交点赤经 317.163° 346.560°
平近点角 87.179° 265.263°
近地点 482.232km 481.961km
远地点 483.882km 484.125km
周期 94.267分钟 94.267分钟
每日圈数 15.275775 15.275822
详细信息
固有亮度:
5
最大亮度:
0.3
卫星平台:
Starlink v2.0 mini
覆盖范围:
全球
运营商:
太空探索技术公司
运营商所在国:
美国
制造商(研发单位):
太空探索技术公司
制造商所在国:
美国
使用方式:
暂无
卫星简介
星链(Starlink)计划是由太空探索技术公司(SpaceX)提出的一个巨型低轨卫星互联网星座项目,计划在2019年至2024年间在太空搭建由约1.2万颗卫星组成的“星链”网络,其中1584颗将部署在地球上空550千米处的近地轨道,并从2020年开始工作。该卫星仍在工作。
2D轨道图
3D轨道图
轨道高度分析图
轨道倾角分析图
轨道综合分析图
查看轨道综合分析图
与全量物体交会距离演化趋势
与全量物体交会风险概率演化趋势